Tracking 25711 objects as of 22-May-2022
HD Live streaming from Space Station
objects crossing your sky now

ONEWEB-0192

Track ONEWEB-0192 now!
10-day predictions
ONEWEB-0192 is classified as:


NORAD ID: 48222
Int'l Code: 2021-031N
Perigee: 1,211.6 km
Apogee: 1,214.2 km
Inclination: 87.9 °
Period: 109.5 minutes
Semi major axis: 7583 km
RCS: Unknown
Launch date: April 25, 2021
Source: United Kingdom (UK)
Launch site: VOSTOCHNY COSMODROME (VOSTO)
aabbcc
Your satellite tracking list
Your tracking list is empty




NASA's NSSDC Master Catalog

Two Line Element Set (TLE):
1 48222U 21031N   22142.51118733  .00000249  00000-0  63706-3 0  9995
2 48222  87.9042 225.1292 0001689 105.5448 254.5868 13.14504869 52864
Source of the keplerian elements: AFSPC